Temperature
22 22 22 22 20 19 22 23 23 24 24 24 24 24 22 22 22 22 21 21 21 21 20 20 20 20 20 20 19 19 19 19 19 19 19 19 19 19 19 19 19 19 19 19 19 19 19 19 19
22 22 22 22 20 21 22 23 24 24 24 24 24 23 22 21 22 22 21 21 21 21 20 20 20 20 20 20 19 19 19 19 19 19 19 19 19 19 19 19 19 19 19 19 19 18 18 18 18
22 22 23 20 21 21 23 23 23 24 24 24 23 23 22 22 22 21 21 20 20 20 20 20 20 20 20 19 19 19 19 19 19 19 19 19 19 19 19 19 19 19 19 19 18 18 18 18 18
22 23 22 20 22 22 22 23 24 24 24 24 23 22 22 22 22 21 21 20 20 20 20 20 20 19 19 19 19 19 19 19 19 19 19 19 19 19 19 19 19 19 19 19 18 18 18 18 18
23 23 20 21 22 22 21 22 24 24 24 24 23 21 21 21 21 21 21 20 20 20 20 19 19 19 19 19 19 19 19 19 19 18 19 19 18 18 18 18 18 18 18 18 18 18 18 18 18
24 20 20 21 22 22 22 23 25 24 23 23 23 22 21 21 21 21 21 20 20 20 20 19 19 19 19 19 19 19 19 19 19 19 18 18 18 18 18 18 18 18 18 18 18 18 18 18 18
22 19 20 21 21 22 24 25 25 23 23 23 24 21 21 22 21 21 21 20 20 20 19 19 19 19 19 19 19 19 19 19 19 19 18 18 18 18 18 18 18 18 18 18 17 17 18 18 18
23 19 21 21 21 22 23 24 26 25 24 24 24 22 21 22 21 21 20 20 20 19 19 19 19 19 19 19 19 18 18 18 19 18 18 18 18 18 18 18 18 18 18 18 17 17 17 17 17
23 19 21 22 22 22 23 24 26 26 24 23 24 24 24 22 21 21 20 20 20 19 19 19 19 19 19 19 19 18 18 18 18 18 18 18 18 18 18 18 18 18 18 18 17 17 17 17 17
22 20 22 22 22 22 23 24 25 25 24 23 23 24 23 22 21 21 21 20 20 20 20 19 19 19 19 19 19 18 18 18 18 18 18 18 18 18 18 18 18 18 18 18 17 17 17 17 17
22 21 22 23 23 23 23 24 25 25 23 24 24 24 23 22 22 21 21 21 21 21 20 20 20 20 19 19 19 19 19 18 18 18 18 18 18 18 18 18 18 18 18 17 17 17 17 17 17
21 22 22 23 24 23 23 24 25 25 25 26 26 26 24 23 22 22 22 22 21 21 21 21 20 20 20 19 19 19 19 18 18 18 18 18 18 18 18 18 18 18 17 17 17 17 17 17 17
21 22 23 23 23 23 24 24 24 24 25 26 26 25 25 24 24 23 22 22 21 21 21 21 21 20 20 19 19 19 19 18 18 18 18 18 18 18 18 18 18 17 17 17 17 17 17 17 17
22 22 22 21 22 22 22 23 23 24 24 25 25 24 24 24 24 23 22 22 22 22 21 21 21 20 20 20 20 19 19 18 18 18 18 18 17 18 18 18 18 17 17 17 17 17 17 17 17
22 22 21 20 20 21 21 22 22 22 23 24 23 23 24 24 24 24 23 23 23 23 22 22 21 20 20 20 20 19 19 18 18 18 18 18 17 17 17 18 18 17 17 16 17 17 16 16 16
21 21 20 21 20 20 22 21 21 22 22 22 22 22 22 22 23 24 24 23 23 23 23 22 22 21 20 20 20 19 19 18 18 18 18 18 17 17 17 17 17 17 17 16 16 17 16 16 16
19 19 20 20 20 20 21 20 21 22 21 21 22 22 22 22 22 23 23 24 23 23 23 23 22 22 21 20 20 19 19 18 18 18 18 18 17 17 17 17 17 17 17 17 17 17 16 16 16
20 19 19 19 20 19 19 19 19 21 20 20 21 21 22 22 23 23 23 24 23 23 23 23 23 22 21 20 19 19 19 18 18 18 18 18 17 17 17 17 17 17 17 17 17 17 16 16 16
20 19 19 19 19 19 18 18 18 19 18 18 19 20 21 22 22 23 23 24 24 23 23 22 22 22 21 20 20 19 19 19 18 18 18 17 17 17 17 17 17 17 17 17 17 17 16 16 16
19 18 18 18 18 19 17 17 17 17 17 17 17 18 19 20 22 23 24 24 24 24 23 23 22 22 22 21 20 20 19 19 18 18 17 17 17 17 17 17 17 17 17 17 17 16 16 16 16
18 18 18 18 18 17 17 16 16 15 16 16 16 16 17 18 20 22 23 24 24 24 24 23 23 22 22 21 20 19 19 19 18 18 18 17 17 17 17 17 17 17 17 16 16 16 16 16 16
17 17 17 17 17 15 16 15 15 14 14 15 15 15 15 17 19 21 22 23 23 23 23 22 22 22 21 20 19 19 19 19 19 18 17 17 17 17 17 17 17 16 16 16 16 16 16 16 15
17 16 16 16 15 15 14 14 14 13 13 14 14 15 14 15 17 19 20 21 21 21 20 20 20 20 19 18 18 18 18 18 18 17 17 17 17 17 17 17 17 16 16 16 16 16 15 15 15
17 16 15 13 13 14 15 14 13 13 13 14 14 14 14 15 16 17 18 18 18 18 18 18 19 18 17 17 17 17 18 18 17 17 17 17 17 17 17 17 16 16 16 16 15 15 15 15 15
15 14 13 14 13 13 14 14 13 14 14 14 13 13 13 14 15 16 16 16 17 16 17 17 17 16 16 16 17 17 17 17 17 17 17 17 17 17 16 16 16 16 15 15 15 15 15 15 15
14 14 13 13 13 13 14 14 13 13 13 13 13 13 13 13 14 16 16 16 16 16 16 16 16 15 15 16 16 16 17 17 17 17 17 17 16 16 16 16 15 15 15 15 14 14 14 14 14
12 11 12 12 12 13 13 14 14 13 13 12 12 12 12 13 14 15 15 15 15 15 15 14 14 15 15 15 16 16 17 17 17 17 17 17 16 16 16 16 15 15 15 15 14 14 14 14 14
11 11 9 11 12 12 13 13 12 11 11 12 12 12 12 13 14 14 14 14 14 14 14 14 14 15 15 16 16 17 17 17 17 17 17 16 16 16 16 16 15 15 14 14 14 14 14 14 14
10 10 10 10 10 12 12 12 11 11 11 11 11 11 12 13 14 14 14 14 14 14 14 14 15 15 15 16 16 17 17 17 17 17 17 17 16 16 16 15 15 15 14 14 14 14 14 14 14
10 10 10 10 11 11 12 11 12 11 11 11 11 11 12 13 14 15 15 15 15 15 15 15 16 16 16 16 17 17 17 17 17 17 17 17 17 17 16 16 15 15 14 14 14 14 14 14 14
Wind_Speed
5 2 4 3 5 6 2 2 2 2 2 2 3 7 8 5 2 2 2 10 11 12 12 15 16 15 13 12 12 12 12 12 13 13 14 13 12 11 11 11 10 10 9 8 8 8 8 8 8
2 2 3 5 5 3 4 3 3 2 5 5 4 5 5 4 3 6 6 8 13 14 13 14 16 15 14 13 13 13 13 13 13 13 13 12 12 11 10 10 10 10 9 9 8 8 8 8 8
1 2 4 5 5 3 2 3 4 2 5 3 4 4 3 4 5 7 7 12 12 11 12 15 17 15 14 13 13 13 13 13 13 14 13 12 11 11 10 10 10 10 10 9 9 9 8 8 9
3 4 5 5 3 2 3 3 2 3 2 4 4 4 2 3 8 6 11 14 13 10 11 14 17 15 14 13 13 13 14 14 14 13 13 12 11 10 9 9 10 10 9 9 9 10 9 10 10
4 5 5 4 3 4 5 5 4 5 3 3 4 5 2 2 6 11 14 14 13 10 10 13 17 16 14 13 13 13 14 14 14 13 13 12 11 10 9 9 10 10 9 8 9 9 10 10 10
5 5 5 2 5 6 5 4 2 5 4 4 5 5 2 3 7 10 13 12 11 11 10 11 16 16 15 14 14 14 14 14 14 14 13 13 11 11 10 9 8 8 7 7 7 9 10 10 9
4 5 4 1 4 6 4 4 2 5 5 6 7 6 2 3 6 10 9 9 8 8 7 7 11 14 15 14 15 15 15 14 14 14 13 13 11 11 10 9 7 7 6 5 6 7 9 9 9
5 5 3 2 2 5 5 5 2 6 4 4 6 8 6 6 7 9 7 7 7 8 8 6 8 10 11 13 15 15 15 15 14 14 13 13 12 11 10 8 7 6 6 5 5 6 8 9 9
4 5 1 2 2 5 4 4 1 3 6 3 4 6 6 12 11 9 5 4 5 7 6 7 6 7 9 10 13 14 15 15 14 13 13 12 9 9 8 8 7 6 5 4 4 5 7 9 10
4 3 6 5 5 4 4 3 2 4 4 2 2 3 9 14 13 11 8 8 8 9 8 7 7 6 7 9 9 10 11 12 11 11 11 10 8 7 7 7 7 6 4 3 3 3 6 7 8
3 5 4 4 5 4 3 3 2 7 5 7 8 10 13 13 13 13 12 10 10 9 10 10 9 7 7 5 7 8 9 10 10 11 11 10 8 6 5 4 3 2 4 5 5 5 4 4 5
2 4 3 4 2 2 3 4 3 4 5 6 10 16 16 17 17 16 16 12 9 8 10 10 10 8 7 6 5 6 6 7 7 10 12 9 5 4 4 4 3 3 4 3 3 3 1 3 5
3 3 1 4 4 3 4 4 3 3 7 0 11 14 17 18 17 16 14 11 9 10 11 10 10 9 7 6 4 4 5 6 9 10 11 11 5 4 4 4 4 4 4 3 2 2 3 5 6
3 2 3 5 6 6 5 5 2 3 7 3 12 15 16 17 17 14 13 12 12 12 12 10 10 10 9 7 7 6 5 7 9 9 11 12 9 6 4 4 4 4 5 4 3 3 3 3 4
2 2 2 4 5 4 4 6 1 4 6 1 8 12 13 13 13 14 15 15 15 13 12 12 12 10 10 9 8 6 7 8 7 8 12 12 11 9 6 4 4 5 6 5 3 4 3 3 3
3 3 3 3 4 5 2 6 2 3 5 4 5 6 8 11 12 13 13 14 12 11 12 14 13 12 11 9 7 5 6 7 7 9 10 12 12 11 7 5 5 6 7 5 3 3 3 2 2
5 2 3 6 2 4 3 6 6 4 3 5 7 7 7 9 11 13 13 14 13 13 12 14 13 14 12 10 7 5 5 5 6 8 9 11 12 12 8 5 4 6 5 4 4 3 3 3 3
2 2 3 5 4 4 4 7 10 7 5 8 8 9 8 9 12 13 15 15 13 12 11 13 13 12 11 8 5 4 4 4 4 6 8 11 11 12 9 5 6 6 5 5 5 4 2 3 3
2 3 5 5 3 3 5 8 11 10 9 10 10 10 10 10 10 10 14 16 13 12 12 14 13 12 11 7 6 5 4 4 4 4 6 9 10 11 8 4 5 6 6 7 7 4 4 2 3
1 2 5 5 3 2 5 8 6 8 9 12 12 12 10 10 11 10 10 14 18 17 15 14 13 12 12 8 5 3 3 3 2 2 4 7 9 9 8 7 6 7 6 6 7 5 4 3 3
3 4 5 5 4 3 4 7 5 7 8 15 17 15 13 12 13 12 9 11 14 16 15 12 12 9 7 6 4 4 4 3 2 2 3 4 7 8 7 7 6 7 7 7 8 7 7 5 3
5 6 3 2 1 4 3 5 6 9 11 19 21 19 18 16 13 11 7 5 6 8 9 11 11 11 8 6 3 2 3 4 5 3 3 4 6 7 8 7 6 7 6 7 8 7 5 6 5
3 3 3 2 1 3 1 3 6 7 12 18 20 20 20 18 14 10 6 6 7 9 11 12 13 13 10 5 2 3 3 2 2 2 4 4 4 5 6 7 6 7 6 7 8 8 8 6 6
4 4 3 5 3 3 4 4 4 6 11 16 18 20 20 18 14 11 10 10 11 11 11 11 14 13 9 3 2 5 5 5 4 4 4 3 3 3 5 5 5 5 5 5 6 7 8 8 6
8 6 5 4 1 6 2 4 2 6 10 12 16 18 18 16 14 12 11 9 9 9 10 11 14 11 5 1 3 6 7 7 6 4 4 3 3 3 4 4 4 4 4 4 4 5 6 7 7
6 2 2 4 4 4 1 4 4 7 10 11 13 14 16 16 12 9 9 8 7 8 10 11 12 8 3 1 4 4 5 4 3 3 3 3 3 3 4 5 5 4 4 4 4 4 5 5 7
7 5 2 3 4 4 2 3 2 14 16 18 18 18 18 16 13 9 8 9 9 9 10 9 7 4 2 4 4 3 3 3 3 3 3 3 3 3 4 4 4 3 3 4 4 4 4 4 6
4 3 4 2 2 4 1 3 7 16 19 19 19 19 18 16 14 10 8 7 8 8 8 6 2 2 4 4 4 3 3 3 3 3 4 4 3 3 4 4 4 4 3 3 3 3 3 4 4
7 5 4 3 2 2 1 3 5 10 13 16 17 16 15 14 12 8 6 5 6 6 4 2 2 3 3 3 2 2 2 3 4 4 4 4 4 5 5 5 5 5 5 4 3 3 2 3 3
3 3 2 2 2 1 0 2 4 9 11 13 16 16 15 12 8 5 3 3 3 2 2 3 3 2 2 3 3 2 2 3 3 3 3 4 5 5 6 5 5 5 5 5 5 4 3 3 3
Wind_Direction
333 54 105 70 54 49 25 316 283 311 66 50 88 103 108 110 152 190 112 137 136 150 166 162 158 155 155 152 147 143 140 138 135 132 128 125 123 121 120 119 117 114 108 104 104 103 100 95 93
328 148 80 66 79 60 320 310 296 256 146 145 84 80 89 96 116 125 133 147 147 154 163 162 163 160 159 157 153 149 146 143 141 140 137 133 132 130 126 122 117 112 106 102 98 97 95 91 89
74 61 91 74 86 143 295 330 307 23 139 137 79 54 83 136 150 156 156 145 148 156 161 167 167 166 164 161 155 153 150 147 145 144 141 139 138 134 131 129 123 114 105 98 91 87 86 81 74
85 49 56 70 76 221 239 278 300 138 154 72 101 81 55 137 160 154 141 145 152 158 162 174 172 173 169 164 159 155 152 149 148 146 142 141 139 135 133 133 129 121 112 101 89 81 75 66 61
64 74 60 53 346 279 252 254 210 186 168 100 112 119 82 76 124 130 143 152 159 160 166 180 180 179 174 169 165 162 157 153 151 151 148 146 143 138 136 133 132 126 119 106 91 81 73 63 55
54 65 80 50 322 305 285 266 201 163 148 133 127 122 88 125 130 143 150 156 162 164 166 182 187 183 177 173 170 168 164 160 157 155 153 151 149 145 143 140 137 132 123 109 91 79 74 65 53
95 84 107 99 329 325 314 333 168 159 157 172 146 119 105 168 158 144 145 146 150 158 158 178 186 184 181 176 173 173 169 166 163 160 159 156 155 153 152 150 147 144 138 122 97 81 73 64 55
116 98 75 32 342 299 298 317 201 162 162 132 132 147 183 191 148 128 125 135 147 156 161 160 169 175 176 176 177 176 172 170 167 163 163 161 162 162 160 158 157 155 152 136 109 91 78 63 59
86 76 107 235 222 273 303 326 354 131 119 127 170 177 181 143 135 128 124 132 150 162 158 156 157 166 168 170 179 176 172 171 168 165 164 162 160 161 160 161 165 162 154 134 111 94 82 71 69
82 135 217 213 199 233 293 288 293 117 121 126 96 103 129 140 150 158 173 183 179 179 176 166 164 164 165 172 171 163 163 166 162 160 157 153 153 156 158 174 177 171 157 122 97 76 71 74 77
143 191 233 246 219 223 267 286 310 148 190 201 190 166 149 156 166 178 191 195 193 185 184 181 176 170 169 164 157 155 156 155 156 157 155 152 147 153 158 171 186 140 110 66 40 32 41 72 88
198 255 248 298 305 219 251 302 340 188 244 247 188 165 162 170 181 190 197 200 186 179 190 186 184 177 174 163 160 159 158 158 157 159 159 154 149 155 165 171 166 113 100 97 54 19 15 145 130
241 284 309 316 327 304 306 291 294 301 317 190 149 165 174 182 191 199 203 200 186 190 193 188 182 177 171 162 161 164 164 165 164 164 169 168 162 168 175 178 174 151 137 144 120 83 117 132 133
268 293 343 1 0 4 341 301 280 300 336 131 161 180 188 192 195 197 204 203 198 198 195 186 183 178 171 173 174 175 167 164 166 175 180 181 178 174 173 178 180 170 162 169 148 119 117 122 131
316 328 7 18 358 349 332 311 313 339 341 222 194 196 197 203 201 205 208 210 206 201 193 186 186 178 177 181 182 177 174 168 174 185 189 191 189 182 178 180 189 180 165 165 148 119 109 110 118
32 31 326 320 7 346 14 287 307 351 14 330 284 248 225 218 215 215 214 217 212 200 193 190 189 181 183 184 183 174 176 176 182 185 191 199 200 188 180 186 198 179 159 160 163 149 137 145 147
35 21 309 313 12 7 26 280 289 326 343 309 301 292 268 246 233 223 216 218 216 207 196 190 187 181 185 184 180 176 172 182 185 184 190 201 204 196 188 193 194 173 157 164 181 166 154 164 165
251 252 278 289 323 5 323 287 300 327 325 305 300 298 293 270 249 233 219 217 218 209 197 192 187 179 174 168 160 162 178 194 186 189 195 196 198 194 190 191 188 173 164 174 179 168 150 147 150
177 207 260 269 331 349 303 297 304 332 348 330 317 305 296 289 282 259 228 214 209 205 195 191 186 176 168 164 167 173 192 193 198 200 196 193 190 185 179 176 176 174 182 183 170 153 156 144 134
124 267 273 287 357 332 311 299 326 355 6 350 337 323 308 304 302 290 251 220 208 204 198 190 187 178 176 177 162 151 146 162 177 177 184 191 187 183 181 175 176 177 174 167 165 154 154 160 158
279 243 263 277 346 35 344 317 355 347 4 5 2 349 335 319 308 300 279 236 214 203 192 183 172 159 154 135 115 87 81 81 124 181 188 184 181 179 175 174 173 178 174 178 178 172 166 172 183
300 316 276 267 355 306 15 298 325 339 348 2 358 353 346 336 325 310 295 257 213 187 155 140 133 117 102 102 130 172 186 193 205 198 187 169 173 176 178 175 176 177 177 180 186 183 175 165 177
333 360 38 45 134 318 315 229 314 344 357 354 352 352 349 346 347 353 18 61 81 95 105 111 111 103 95 96 143 214 223 202 182 179 181 172 167 171 170 171 174 180 184 186 183 183 189 188 184
357 8 36 47 81 278 238 178 337 1 346 343 348 351 352 355 4 21 40 56 67 77 88 97 97 91 92 100 182 211 207 192 182 195 188 171 151 160 172 173 178 185 188 193 193 194 197 202 199
26 35 356 333 328 243 217 140 84 4 353 347 344 346 350 359 11 25 36 48 60 73 83 86 86 83 80 116 223 217 205 192 192 193 189 165 159 171 179 168 175 183 198 203 196 198 205 203 206
348 42 209 253 245 278 306 150 127 23 354 348 347 345 348 355 4 23 40 46 56 70 83 85 87 86 74 269 253 223 197 180 184 188 181 180 180 173 165 172 177 184 189 197 198 207 214 208 213
3 352 299 252 272 264 257 92 48 1 357 352 350 348 346 347 350 3 30 50 55 65 73 76 82 93 183 226 229 207 192 174 170 175 185 187 182 174 166 166 165 173 184 196 196 216 222 213 216
42 323 10 355 258 245 237 70 2 350 346 342 342 341 337 339 342 353 12 37 53 60 68 65 58 261 239 223 208 198 199 180 171 173 189 196 192 176 162 157 156 162 179 195 201 223 226 216 217
355 4 353 297 255 259 184 83 21 342 336 334 333 333 333 329 325 340 357 13 48 53 48 24 279 250 225 201 177 148 145 162 172 179 185 185 183 180 182 179 173 176 184 190 196 223 222 220 224
356 327 308 306 321 316 121 92 1 348 341 340 337 338 340 333 328 339 337 340 25 24 338 293 278 256 212 175 143 131 137 155 165 176 188 189 191 190 192 188 189 191 187 187 194 213 212 214 226
Height
1493 1492 1492 1494 1497 1508 1510 1503 1499 1496 1495 1495 1495 1496 1498 1501 1504 1509 1504 1504 1507 1510 1512 1515 1518 1520 1522 1524 1526 1527 1528 1530 1531 1532 1533 1534 1536 1537 1537 1538 1539 1539 1540 1540 1541 1541 1542 1543 1544
1493 1493 1494 1494 1505 1520 1514 1502 1499 1496 1495 1496 1496 1497 1498 1500 1500 1501 1502 1505 1508 1511 1513 1515 1518 1520 1522 1524 1526 1528 1529 1530 1531 1533 1534 1535 1537 1537 1538 1539 1540 1540 1541 1541 1541 1542 1543 1544 1544
1492 1493 1494 1497 1508 1516 1511 1501 1498 1496 1496 1496 1497 1498 1499 1500 1501 1502 1503 1505 1508 1511 1514 1516 1518 1521 1523 1524 1526 1528 1529 1531 1532 1534 1535 1536 1537 1538 1539 1540 1540 1541 1541 1542 1542 1542 1543 1544 1545
1493 1494 1495 1502 1508 1506 1503 1499 1497 1497 1497 1497 1497 1499 1500 1502 1502 1503 1504 1506 1509 1512 1514 1517 1519 1521 1523 1524 1526 1528 1529 1531 1533 1534 1535 1537 1538 1539 1540 1540 1541 1541 1542 1543 1543 1544 1544 1545 1546
1493 1493 1500 1509 1507 1502 1499 1497 1496 1497 1497 1497 1498 1499 1501 1502 1503 1504 1506 1508 1510 1512 1515 1517 1519 1521 1523 1525 1526 1528 1530 1531 1533 1534 1536 1537 1538 1539 1540 1541 1541 1542 1543 1544 1544 1545 1546 1547 1548
1493 1495 1510 1514 1508 1500 1496 1494 1494 1495 1496 1497 1497 1499 1501 1503 1504 1505 1507 1509 1511 1513 1515 1517 1519 1521 1522 1524 1526 1528 1530 1532 1533 1535 1536 1537 1539 1540 1540 1541 1542 1543 1544 1545 1545 1546 1547 1548 1549
1494 1500 1509 1510 1509 1502 1495 1494 1493 1494 1496 1497 1497 1499 1501 1503 1505 1507 1508 1510 1512 1514 1515 1517 1518 1520 1522 1524 1526 1528 1530 1532 1533 1535 1536 1538 1539 1540 1541 1542 1543 1544 1545 1546 1546 1547 1548 1549 1550
1493 1499 1507 1509 1508 1504 1496 1493 1493 1494 1496 1497 1498 1498 1500 1502 1505 1507 1509 1510 1512 1513 1515 1517 1518 1520 1522 1524 1526 1528 1530 1532 1533 1535 1537 1538 1540 1541 1541 1542 1543 1545 1546 1546 1547 1548 1549 1550 1551
1494 1504 1510 1506 1505 1501 1495 1494 1494 1494 1495 1497 1497 1498 1499 1501 1504 1506 1508 1510 1511 1513 1514 1516 1517 1519 1521 1523 1525 1528 1530 1532 1533 1535 1537 1538 1540 1541 1542 1543 1544 1545 1546 1547 1548 1548 1549 1550 1552
1495 1506 1503 1498 1497 1496 1495 1494 1494 1494 1496 1496 1497 1497 1498 1500 1502 1505 1507 1508 1510 1511 1513 1515 1516 1518 1520 1522 1525 1527 1529 1531 1533 1535 1537 1538 1540 1541 1542 1543 1544 1546 1547 1548 1548 1549 1550 1551 1552
1495 1499 1496 1494 1494 1494 1494 1493 1493 1493 1495 1494 1493 1494 1497 1499 1501 1504 1506 1507 1509 1511 1512 1514 1515 1517 1519 1521 1523 1526 1528 1530 1532 1535 1537 1538 1540 1541 1542 1543 1544 1546 1547 1548 1549 1550 1551 1552 1553
1496 1495 1495 1494 1493 1493 1493 1492 1492 1492 1492 1492 1492 1493 1494 1496 1499 1501 1503 1506 1508 1510 1512 1514 1515 1516 1518 1520 1522 1525 1527 1529 1531 1534 1536 1538 1539 1541 1542 1543 1544 1545 1547 1548 1550 1551 1552 1553 1553
1496 1495 1494 1494 1493 1493 1492 1492 1492 1491 1491 1489 1490 1492 1493 1495 1497 1499 1502 1505 1507 1509 1511 1513 1515 1516 1517 1519 1521 1524 1526 1528 1531 1533 1535 1537 1539 1540 1541 1542 1544 1545 1547 1548 1550 1551 1552 1553 1554
1496 1495 1495 1494 1493 1493 1493 1491 1492 1490 1489 1489 1489 1490 1492 1493 1495 1498 1500 1502 1504 1507 1510 1512 1514 1515 1517 1519 1520 1523 1525 1527 1529 1532 1534 1536 1538 1540 1541 1542 1543 1545 1547 1548 1550 1551 1552 1553 1554
1496 1497 1497 1496 1495 1495 1494 1494 1492 1491 1489 1489 1489 1489 1490 1492 1495 1496 1497 1499 1502 1504 1507 1510 1512 1514 1516 1518 1520 1522 1524 1526 1528 1530 1533 1535 1537 1539 1540 1541 1543 1545 1547 1548 1549 1551 1551 1552 1553
1497 1501 1505 1498 1496 1495 1498 1501 1493 1491 1490 1490 1489 1489 1490 1491 1492 1494 1497 1498 1500 1502 1505 1507 1510 1512 1514 1516 1519 1521 1522 1524 1526 1528 1531 1533 1535 1537 1539 1540 1542 1545 1546 1547 1549 1550 1551 1552 1552
1505 1510 1508 1502 1497 1497 1498 1500 1492 1491 1491 1490 1489 1489 1489 1489 1490 1491 1494 1496 1498 1500 1502 1504 1507 1509 1512 1515 1517 1520 1521 1523 1525 1527 1529 1531 1533 1535 1537 1539 1541 1543 1545 1546 1547 1548 1549 1550 1551
1510 1510 1509 1506 1499 1499 1500 1499 1493 1491 1492 1491 1489 1488 1487 1486 1486 1488 1489 1492 1495 1497 1500 1502 1505 1507 1510 1513 1515 1517 1520 1522 1523 1525 1527 1529 1531 1533 1534 1536 1539 1540 1542 1544 1545 1547 1548 1549 1550
1503 1508 1510 1506 1500 1501 1502 1502 1496 1493 1493 1491 1489 1487 1485 1484 1483 1483 1484 1486 1489 1493 1495 1498 1501 1503 1506 1509 1512 1514 1517 1520 1522 1524 1526 1527 1528 1530 1531 1533 1535 1537 1539 1541 1543 1544 1545 1547 1548
1505 1509 1510 1505 1501 1502 1505 1503 1498 1497 1497 1496 1492 1487 1484 1482 1479 1478 1478 1479 1481 1485 1488 1492 1496 1500 1503 1506 1510 1513 1515 1518 1521 1523 1524 1525 1526 1527 1529 1530 1532 1534 1536 1537 1539 1541 1542 1544 1545
1508 1511 1509 1508 1505 1504 1507 1507 1503 1500 1498 1495 1492 1488 1484 1480 1477 1475 1474 1473 1475 1477 1481 1485 1490 1496 1501 1505 1509 1512 1514 1517 1519 1520 1521 1523 1524 1525 1527 1528 1529 1531 1532 1534 1535 1537 1539 1541 1542
1514 1508 1507 1507 1511 1516 1513 1521 1509 1506 1500 1496 1493 1488 1483 1478 1474 1472 1470 1470 1471 1472 1476 1480 1484 1491 1498 1503 1508 1511 1513 1514 1516 1518 1519 1520 1522 1523 1524 1525 1526 1527 1528 1530 1531 1533 1534 1536 1538
1511 1508 1509 1510 1513 1519 1517 1521 1517 1510 1507 1501 1497 1492 1486 1479 1474 1471 1469 1468 1468 1470 1472 1475 1480 1486 1494 1501 1505 1509 1511 1512 1514 1515 1516 1517 1519 1521 1522 1522 1523 1524 1525 1526 1527 1528 1530 1531 1533
1510 1511 1513 1518 1520 1527 1517 1522 1522 1517 1514 1507 1501 1495 1489 1482 1476 1473 1471 1470 1469 1470 1472 1474 1477 1483 1489 1497 1503 1507 1509 1511 1512 1513 1513 1515 1516 1518 1519 1520 1521 1521 1521 1522 1523 1524 1525 1527 1528
1517 1524 1533 1530 1532 1527 1514 1518 1522 1516 1513 1511 1505 1499 1492 1485 1480 1476 1475 1474 1474 1474 1474 1475 1476 1482 1488 1496 1502 1505 1507 1509 1510 1511 1512 1513 1515 1516 1517 1518 1518 1518 1518 1519 1519 1520 1521 1522 1523
1524 1526 1538 1540 1535 1526 1515 1519 1520 1516 1514 1511 1506 1501 1494 1488 1483 1479 1477 1477 1477 1476 1475 1476 1477 1483 1489 1496 1500 1503 1506 1507 1508 1510 1511 1512 1514 1515 1516 1516 1516 1516 1516 1516 1516 1516 1517 1517 1518
1531 1533 1531 1535 1530 1528 1521 1518 1516 1514 1511 1508 1504 1499 1495 1489 1485 1482 1479 1477 1477 1477 1476 1478 1482 1488 1493 1497 1500 1502 1504 1506 1508 1509 1511 1512 1512 1513 1514 1514 1514 1514 1513 1513 1513 1513 1513 1513 1514
1535 1535 1538 1537 1536 1533 1523 1523 1527 1522 1517 1511 1506 1501 1496 1490 1487 1484 1482 1480 1480 1480 1481 1484 1489 1493 1496 1498 1499 1501 1503 1505 1507 1509 1510 1510 1511 1511 1511 1512 1511 1511 1511 1511 1511 1511 1511 1511 1511
1539 1538 1537 1538 1536 1534 1531 1533 1529 1528 1522 1516 1509 1503 1497 1492 1489 1487 1485 1484 1484 1485 1487 1490 1493 1496 1496 1498 1500 1502 1503 1505 1507 1507 1507 1508 1508 1508 1509 1509 1509 1509 1509 1509 1509 1509 1509 1509 1509
1540 1540 1538 1539 1535 1532 1531 1537 1527 1527 1522 1516 1509 1503 1497 1493 1490 1489 1488 1488 1489 1490 1491 1493 1494 1495 1496 1497 1500 1501 1503 1504 1505 1505 1505 1505 1505 1506 1506 1507 1507 1507 1507 1508 1508 1508 1508 1507 1507